,,PA_Meas_PMT16A,,PR_Meas_QMR101_102,,RH_Meas_QMH101,,SR_Meas_QMS101,,TA_Meas_QMH101,,GenWind,,GenWind,
time,status,PA,status,PR,status,RH,status,SR,status,TA,status,DirAvg,status,SpdAvg,
2015-03-01, 00:00:04,VALID,918.401,VALID,0,VALID,96.6344,VALID,0,VALID,19.9953,VALID,105,VALID,0,
2015-03-01, 00:01:04,VALID,918.412,VALID,0,VALID,96.7793,VALID,0,VALID,19.9758,VALID,105,VALID,0,
2015-03-01, 00:02:04,VALID,918.437,VALID,0,VALID,96.886,VALID,0,VALID,19.9563,VALID,105,VALID,0,
2015-03-01, 00:03:04,VALID,918.437,VALID,0,VALID,96.947,VALID,0,VALID,19.9158,VALID,105,VALID,0,
2015-03-01, 00:04:04,VALID,918.449,VALID,0,VALID,97.0003,VALID,0,VALID,19.9368,VALID,105,VALID,0,
2015-03-01, 00:05:04,VALID,918.402,VALID,0,VALID,97.0766,VALID,0.107441,VALID,19.9353,VALID,105,VALID,0,
2015-03-01, 00:06:04,VALID,918.393,VALID,0,VALID,97.1223,VALID,0.107441,VALID,19.9158,VALID,105,VALID,0,
2015-03-01, 07:28:04,VALID,917.976,VALID,0,VALID,97.0537,VALID,70.2665,VALID,19.1763,VALID,67,VALID,0,
2015-03-01, 07:29:04,VALID,917.974,VALID,0,VALID,97.069,VALID,74.6716,VALID,19.1763,VALID,79,VALID,0,
2015-03-01, 07:30:04,VALID,917.964,VALID,0,VALID,97.1147,VALID,76.8204,VALID,19.1958,VALID,78,VALID,0,
2015-03-01, 07:31:04,VALID,917.935,VALID,0,VALID,97.1299,VALID,76.8204,VALID,19.1958,VALID,79,VALID,0,
2015-03-01, 07:32:04,VALID,917.928,VALID,0,VALID,97.0461,VALID,76.2832,VALID,19.1973,VALID,80,VALID,0,
2015-03-01, 07:33:04,VALID,917.925,VALID,0,VALID,96.8707,VALID,76.713,VALID,19.1763,VALID,79,VALID,0,
2015-03-01, 07:34:04,VALID,917.936,VALID,0,VALID,96.6573,VALID,79.2916,VALID,19.1958,VALID,79,VALID,0,
2015-03-01, 07:35:04,VALID,917.936,VALID,0,VALID,96.3752,VALID,83.2669,VALID,19.2348,VALID,81,VALID,0,
2015-03-01, 07:36:04,VALID,917.939,VALID,0,VALID,96.3066,VALID,87.0273,VALID,19.3143,VALID,47,VALID,0,
2015-03-01, 07:37:04,VALID,917.968,VALID,0,VALID,95.9026,VALID,90.0357,VALID,19.3143,VALID,52,VALID,0,
2015-03-01, 07:38:04,VALID,917.992,VALID,0,VALID,95.8111,VALID,91.4324,VALID,19.3518,VALID,52,VALID,0,
2015-03-01, 07:39:04,VALID,917.969,VALID,0,VALID,95.4985,VALID,92.3994,VALID,19.3533,VALID,51,VALID,0,
2015-03-01, 07:40:04,VALID,917.981,VALID,0,VALID,95.0564,VALID,93.1515,VALID,19.3323,VALID,53,VALID,0,
2015-03-01, 07:41:04,VALID,918.003,VALID,0,VALID,94.9725,VALID,94.011,VALID,19.3518,VALID,53,VALID,0,
2015-03-01, 07:42:04,VALID,917.988,VALID,0,VALID,94.7743,VALID,94.5482,VALID,19.3308,VALID,63,VALID,0,
2015-03-01, 07:43:04,VALID,918.021,VALID,0,VALID,94.8124,VALID,94.5482,VALID,19.3908,VALID,62,VALID,0,
2015-03-01, 07:44:04,VALID,918.024,VALID,0,VALID,94.9039,VALID,93.9036,VALID,19.4103,VALID,61,VALID,0,
2015-03-01, 07:45:04,VALID,918.016,VALID,0,VALID,95.003,VALID,92.7217,VALID,19.4688,VALID,62,VALID,0,
2015-03-01, 07:46:04,VALID,918.059,VALID,0,VALID,94.8658,VALID,91.2175,VALID,19.5078,VALID,62,VALID,0,
2015-03-01, 07:47:04,VALID,918.089,VALID,0,VALID,94.538,VALID,89.0687,VALID,19.5273,VALID,62,VALID,0,
2015-03-01, 07:48:04,VALID,918.111,VALID,0,VALID,94.2635,VALID,83.5892,VALID,19.5663,VALID,62,VALID,0,
2015-03-01, 07:49:04,VALID,918.113,VALID,0,VALID,94.0806,VALID,73.9195,VALID,19.6053,VALID,39,VALID,0,
2015-03-01, 07:50:04,VALID,918.147,VALID,0,VALID,94.3321,VALID,63.068,VALID,19.6443,VALID,36,VALID,0,
2015-03-01, 07:51:04,VALID,918.169,VALID,0,VALID,94.8429,VALID,54.6875,VALID,19.7043,VALID,36,VALID,0,
2015-03-01, 07:52:04,VALID,918.218,VALID,0,VALID,95.3156,VALID,48.3485,VALID,19.6833,VALID,36,VALID,0,
2015-03-01, 07:53:04,VALID,918.241,VALID,0,VALID,95.5214,VALID,43.836,VALID,19.6428,VALID,36,VALID,0,
2015-03-01, 07:54:04,VALID,918.251,VALID,0,VALID,95.6662,VALID,40.7202,VALID,19.6233,VALID,36,VALID,0,
2015-03-01, 07:55:04,VALID,918.273,VALID,0,VALID,95.7425,VALID,39.216,VALID,19.6458,VALID,36,VALID,0,
2015-03-01, 07:56:04,VALID,918.271,VALID,0,VALID,95.834,VALID,38.4639,VALID,19.6233,VALID,36,VALID,0,
2015-03-01, 07:57:04,VALID,918.31,VALID,0,VALID,95.9331,VALID,37.7118,VALID,19.6833,VALID,36,VALID,0,
2015-03-01, 07:58:04,VALID,918.344,VALID,0,VALID,95.9788,VALID,36.7449,VALID,19.7433,VALID,36,VALID,0,
2015-03-01, 07:59:04,VALID,918.364,VALID,0,VALID,95.9483,VALID,36.2077,VALID,19.7013,VALID,36,VALID,0,
2015-03-01, 08:00:04,VALID,918.352,VALID,0,VALID,95.9331,VALID,36.8523,VALID,19.7013,VALID,36,VALID,0,
2015-03-01, 08:01:04,VALID,918.383,VALID,0,VALID,95.9178,VALID,38.7863,VALID,19.7613,VALID,36,VALID,0,
2015-03-01, 08:02:04,VALID,918.376,VALID,0,VALID,95.8187,VALID,42.9765,VALID,19.7418,VALID,36,VALID,0,
2015-03-01, 08:03:04,VALID,918.425,VALID,0,VALID,95.6281,VALID,46.6295,VALID,19.7223,VALID,36,VALID,0,
2015-03-01, 08:04:04,VALID,918.415,VALID,0,VALID,95.3918,VALID,50.175,VALID,19.7208,VALID,36,VALID,0,
2015-03-01, 08:05:04,VALID,918.45,VALID,0,VALID,95.3156,VALID,52.3238,VALID,19.7823,VALID,36,VALID,0,
2015-03-01, 08:06:04,VALID,918.503,VALID,0,VALID,95.2241,VALID,54.9024,VALID,19.7403,VALID,36,VALID,0,
2015-03-01, 08:07:04,VALID,918.519,VALID,0,VALID,95.2012,VALID,57.5885,VALID,19.7823,VALID,36,VALID,0,
2015-03-01, 08:08:04,VALID,918.523,VALID,0,VALID,95.3232,VALID,58.1257,VALID,19.8003,VALID,36,VALID,0,
2015-03-01, 08:09:04,VALID,918.544,VALID,0,VALID,95.4071,VALID,57.5885,VALID,19.8603,VALID,36,VALID,0,
2015-03-01, 08:10:04,VALID,918.549,VALID,0,VALID,95.3842,VALID,57.481,VALID,19.8378,VALID,36,VALID,0,
2015-03-01, 08:11:04,VALID,918.579,VALID,0,VALID,95.4223,VALID,57.9108,VALID,19.9383,VALID,36,VALID,0,
2015-03-01, 08:12:04,VALID,918.616,VALID,0,VALID,95.2851,VALID,57.6959,VALID,19.9578,VALID,36,VALID,0,
2015-03-01, 08:13:04,VALID,918.575,VALID,0,VALID,95.1936,VALID,57.481,VALID,19.8948,VALID,36,VALID,0,
2015-03-01, 08:14:04,VALID,918.577,VALID,0,VALID,95.2546,VALID,58.0182,VALID,19.9984,VALID,36,VALID,0,
2015-03-01, 08:15:04,VALID,918.581,VALID,0,VALID,95.0716,VALID,61.4563,VALID,19.9368,VALID,36,VALID,0,
2015-03-01, 08:16:04,VALID,918.588,VALID,0,VALID,95.1479,VALID,64.6796,VALID,19.9563,VALID,36,VALID,0,
2015-03-01, 08:17:04,VALID,918.617,VALID,0,VALID,95.2927,VALID,66.1837,VALID,19.9563,VALID,36,VALID,0,
2015-03-01, 08:18:04,VALID,918.618,VALID,0,VALID,95.1783,VALID,66.0763,VALID,19.8978,VALID,36,VALID,0,
2015-03-01, 08:19:04,VALID,918.63,VALID,0,VALID,95.3003,VALID,65.4317,VALID,19.8588,VALID,36,VALID,0,
2015-03-01, 08:20:04,VALID,918.679,VALID,0,VALID,95.5748,VALID,64.6796,VALID,19.8588,VALID,36,VALID,0,
2015-03-01, 08:21:04,VALID,918.716,VALID,0,VALID,95.7654,VALID,62.9605,VALID,19.8588,VALID,36,VALID,0,
2015-03-01, 08:22:04,VALID,918.783,VALID,0,VALID,95.9483,VALID,59.6298,VALID,19.8798,VALID,36,VALID,0,
2015-03-01, 08:23:04,VALID,918.816,VALID,0,VALID,96.0093,VALID,55.5471,VALID,19.8783,VALID,36,VALID,0,
2015-03-01, 08:24:04,VALID,918.861,VALID,0,VALID,96.0322,VALID,52.109,VALID,19.8783,VALID,36,VALID,0,
2015-03-01, 08:25:04,VALID,918.883,VALID,0,VALID,96.0932,VALID,49.7453,VALID,19.8978,VALID,36,VALID,0,
2015-03-01, 08:26:04,VALID,918.904,VALID,0,VALID,96.0703,VALID,47.7039,VALID,19.8978,VALID,36,VALID,0,
2015-03-01, 08:27:04,VALID,918.937,VALID,0,VALID,96.055,VALID,45.6625,VALID,19.8978,VALID,36,VALID,0,
2015-03-01, 08:28:04,VALID,918.933,VALID,0,VALID,96.0779,VALID,43.5137,VALID,19.8978,VALID,36,VALID,0,
2015-03-01, 08:29:04,VALID,918.966,VALID,0,VALID,96.1618,VALID,41.6872,VALID,19.8978,VALID,36,VALID,0,
2015-03-01, 08:30:04,VALID,918.965,VALID,0,VALID,96.1084,VALID,39.6458,VALID,19.8588,VALID,36,VALID,0,
2015-03-01, 08:31:04,VALID,918.995,VALID,0,VALID,96.0398,VALID,36.53,VALID,19.8198,VALID,36,VALID,0,
2015-03-01, 08:32:04,VALID,919.048,VALID,0,VALID,96.0932,VALID,33.9514,VALID,19.8198,VALID,36,VALID,0,
2015-03-01, 08:33:04,VALID,919.038,VALID,0,VALID,96.1846,VALID,32.5547,VALID,19.8393,VALID,36,VALID,0,
2015-03-01, 08:34:04,VALID,919.082,VALID,0,VALID,96.2609,VALID,32.9844,VALID,19.8783,VALID,36,VALID,0,
2015-03-01, 08:35:04,VALID,919.087,VALID,0,VALID,96.3219,VALID,35.2407,VALID,19.9173,VALID,36,VALID,0,
2015-03-01, 08:36:04,VALID,919.093,VALID,0,VALID,96.3371,VALID,40.0756,VALID,19.9173,VALID,36,VALID,0,
2015-03-01, 08:37:04,VALID,919.092,VALID,0,VALID,96.2685,VALID,48.0262,VALID,19.9353,VALID,36,VALID,0,
2015-03-01, 08:38:04,VALID,919.091,VALID,0,VALID,96.177,VALID,58.5554,VALID,19.9563,VALID,36,VALID,0,
2015-03-01, 08:39:04,VALID,919.115,VALID,0,VALID,96.0932,VALID,69.8367,VALID,19.9953,VALID,36,VALID,0,
2015-03-01, 08:40:04,VALID,919.127,VALID,0,VALID,96.0169,VALID,80.4734,VALID,19.9938,VALID,37,VALID,0,
2015-03-01, 08:41:04,VALID,919.188,VALID,0,VALID,95.9941,VALID,88.8538,VALID,20.0538,VALID,36,VALID,0,
2015-03-01, 08:42:04,VALID,919.185,VALID,0,VALID,96.0322,VALID,94.1184,VALID,20.1123,VALID,36,VALID,0,
2015-03-01, 08:43:04,VALID,919.214,VALID,0,VALID,96.1008,VALID,97.3417,VALID,20.2098,VALID,36,VALID,0,
2015-03-01, 08:44:04,VALID,919.221,VALID,0,VALID,96.0703,VALID,100.028,VALID,20.2684,VALID,36,VALID,0,
2015-03-01, 08:45:04,VALID,919.256,VALID,0,VALID,95.8263,VALID,103.144,VALID,20.2684,VALID,36,VALID,0,
2015-03-01, 08:46:04,VALID,919.279,VALID,0,VALID,95.651,VALID,106.259,VALID,20.2879,VALID,36,VALID,0,
2015-03-01, 08:47:04,VALID,919.283,VALID,0,VALID,95.59,VALID,110.02,VALID,20.3269,VALID,38,VALID,0,
2015-03-01, 08:48:04,VALID,919.262,VALID,0,VALID,95.5824,VALID,113.78,VALID,20.3269,VALID,38,VALID,0,
2015-03-01, 08:49:04,VALID,919.294,VALID,0,VALID,95.7806,VALID,117.863,VALID,20.3448,VALID,51,VALID,0,
2015-03-01, 08:50:04,VALID,919.27,VALID,0,VALID,95.8187,VALID,123.02,VALID,20.3643,VALID,25,VALID,0,
2015-03-01, 08:51:04,VALID,919.28,VALID,0,VALID,95.7958,VALID,126.243,VALID,20.4228,VALID,44,VALID,0,
2015-03-01, 08:52:04,VALID,919.291,VALID,0,VALID,95.6662,VALID,127.425,VALID,20.4634,VALID,47,VALID,0,
2015-03-01, 08:53:04,VALID,919.29,VALID,0,VALID,95.6815,VALID,127.425,VALID,20.4829,VALID,48,VALID,0,
2015-03-01, 08:54:04,VALID,919.328,VALID,0,VALID,95.7577,VALID,127.962,VALID,20.5219,VALID,48,VALID,0,
2015-03-01, 08:55:04,VALID,919.305,VALID,0,VALID,95.7425,VALID,127.855,VALID,20.5204,VALID,66,VALID,0,
2015-03-01, 08:56:04,VALID,919.316,VALID,0,VALID,95.6967,VALID,127.962,VALID,20.5999,VALID,36,VALID,0,
2015-03-01, 08:57:04,VALID,919.353,VALID,0,VALID,95.4375,VALID,128.714,VALID,20.5984,VALID,35,VALID,0,
2015-03-01, 08:58:04,VALID,919.362,VALID,0,VALID,95.4375,VALID,128.822,VALID,20.678,VALID,35,VALID,0,
2015-03-01, 08:59:04,VALID,919.367,VALID,0,VALID,95.2851,VALID,125.599,VALID,20.7154,VALID,36,VALID,0,
2015-03-01, 09:00:04,VALID,919.4,VALID,0,VALID,94.9039,VALID,121.409,VALID,20.7154,VALID,48,VALID,0,
2015-03-01, 09:01:04,VALID,919.376,VALID,0,VALID,94.5151,VALID,132.26,VALID,20.7154,VALID,48,VALID,0,
2015-03-01, 09:02:04,VALID,919.377,VALID,0,VALID,94.6295,VALID,145.798,VALID,20.795,VALID,48,VALID,0,
2015-03-01, 09:03:04,VALID,919.368,VALID,0,VALID,94.8505,VALID,155.467,VALID,20.8714,VALID,48,VALID,0,
2015-03-01, 09:04:04,VALID,919.354,VALID,0,VALID,94.6905,VALID,160.087,VALID,20.93,VALID,76,VALID,0,
2015-03-01, 09:05:04,VALID,919.34,VALID,0,VALID,93.4631,VALID,166.104,VALID,20.9316,VALID,116,VALID,0,
2015-03-01, 09:06:04,VALID,919.355,VALID,0,VALID,92.6093,VALID,178.675,VALID,20.9105,VALID,116,VALID,0,
2015-03-01, 09:07:04,VALID,919.354,VALID,0,VALID,92.9904,VALID,194.683,VALID,20.9706,VALID,116,VALID,0,
2015-03-01, 09:08:04,VALID,919.308,VALID,0,VALID,92.2967,VALID,202.956,VALID,21.0096,VALID,59,VALID,0,
2015-03-01, 09:09:04,VALID,919.293,VALID,0,VALID,90.5052,VALID,205.427,VALID,21.086,VALID,59,VALID,0,
2015-03-01, 09:10:04,VALID,919.29,VALID,0,VALID,89.9792,VALID,200.808,VALID,21.164,VALID,36,VALID,0,
2015-03-01, 09:11:04,VALID,919.313,VALID,0,VALID,89.2092,VALID,197.047,VALID,21.2226,VALID,352,VALID,0,
2015-03-01, 09:12:04,VALID,919.296,VALID,0,VALID,88.5002,VALID,187.807,VALID,21.2616,VALID,352,VALID,0,
2015-03-01, 09:13:04,VALID,919.314,VALID,0,VALID,88.5002,VALID,177.923,VALID,21.3217,VALID,359,VALID,0,
2015-03-01, 09:14:04,VALID,919.315,VALID,0,VALID,88.1648,VALID,164.6,VALID,21.3217,VALID,20,VALID,0.000390625,
2015-03-01, 09:15:04,VALID,919.361,VALID,0,VALID,88.6603,VALID,156.219,VALID,21.3006,VALID,19,VALID,0.728906,
2015-03-01, 09:16:04,VALID,919.359,VALID,0,VALID,89.3464,VALID,153.211,VALID,21.2616,VALID,30,VALID,0,
2015-03-01, 09:17:04,VALID,919.389,VALID,0,VALID,90.1545,VALID,156.219,VALID,21.3022,VALID,33,VALID,0,
2015-03-01, 09:18:04,VALID,919.374,VALID,0,VALID,90.3985,VALID,163.955,VALID,21.3803,VALID,17,VALID,0,
2015-03-01, 09:19:04,VALID,919.373,VALID,0,VALID,89.0644,VALID,175.022,VALID,21.3803,VALID,3,VALID,0,
2015-03-01, 09:20:04,VALID,919.395,VALID,0,VALID,88.7061,VALID,186.733,VALID,21.3396,VALID,20,VALID,0,
2015-03-01, 09:21:04,VALID,919.353,VALID,0,VALID,88.546,VALID,199.733,VALID,21.3412,VALID,8,VALID,0,
2015-03-01, 09:22:04,VALID,919.367,VALID,0,VALID,89.0872,VALID,214.13,VALID,21.3217,VALID,3,VALID,0,
2015-03-01, 09:23:04,VALID,919.351,VALID,0,VALID,89.4913,VALID,230.998,VALID,21.3608,VALID,29,VALID,0,
2015-03-01, 09:24:04,VALID,919.351,VALID,0,VALID,90.0402,VALID,249.693,VALID,21.4193,VALID,2,VALID,0,
2015-03-01, 09:25:04,VALID,919.363,VALID,0,VALID,89.5675,VALID,292.992,VALID,21.4778,VALID,354,VALID,0,
2015-03-01, 09:26:04,VALID,919.348,VALID,0,VALID,88.0352,VALID,277.091,VALID,21.4762,VALID,336,VALID,0,
2015-03-01, 09:27:04,VALID,919.352,VALID,0,VALID,88.8052,VALID,273.653,VALID,21.5347,VALID,356,VALID,0,
2015-03-01, 09:28:04,VALID,919.39,VALID,0,VALID,88.6756,VALID,267.636,VALID,21.5932,VALID,16,VALID,0,
2015-03-01, 09:29:04,VALID,919.388,VALID,0,VALID,89.011,VALID,268.281,VALID,21.6306,VALID,6,VALID,0,
2015-03-01, 09:30:04,VALID,919.389,VALID,0,VALID,87.4558,VALID,258.396,VALID,21.6713,VALID,4,VALID,0,
2015-03-01, 09:31:04,VALID,919.397,VALID,0,VALID,87.8675,VALID,251.52,VALID,21.6908,VALID,16,VALID,0,
2015-03-01, 09:32:04,VALID,919.392,VALID,0,VALID,87.6464,VALID,252.809,VALID,21.6908,VALID,346,VALID,0.320313,
2015-03-01, 09:33:04,VALID,919.413,VALID,0,VALID,87.5016,VALID,245.288,VALID,21.6518,VALID,331,VALID,0,
2015-03-01, 09:34:04,VALID,919.372,VALID,0,VALID,88.5231,VALID,230.246,VALID,21.6323,VALID,13,VALID,0,
2015-03-01, 09:35:04,VALID,919.348,VALID,0,VALID,89.4913,VALID,212.948,VALID,21.6713,VALID,16,VALID,0.227344,
2015-03-01, 09:36:04,VALID,919.405,VALID,0,VALID,89.2016,VALID,200.27,VALID,21.6908,VALID,353,VALID,0.169531,
2015-03-01, 09:37:04,VALID,919.359,VALID,0,VALID,88.5688,VALID,197.692,VALID,21.6306,VALID,13,VALID,0.328125,
2015-03-01, 09:38:04,VALID,919.391,VALID,0,VALID,89.0872,VALID,202.849,VALID,21.6111,VALID,37,VALID,0.00820312,
2015-03-01, 09:39:04,VALID,919.37,VALID,0,VALID,88.4316,VALID,210.155,VALID,21.5526,VALID,19,VALID,0.529297,
2015-03-01, 09:40:04,VALID,919.368,VALID,0,VALID,89.0491,VALID,216.494,VALID,21.4355,VALID,26,VALID,0.880859,
2015-03-01, 09:41:04,VALID,919.411,VALID,0,VALID,89.9868,VALID,222.188,VALID,21.416,VALID,26,VALID,0.00351562,
2015-03-01, 09:42:04,VALID,919.407,VALID,0,VALID,89.8877,VALID,225.841,VALID,21.3965,VALID,13,VALID,1.31055,
2015-03-01, 09:43:04,VALID,919.413,VALID,0,VALID,90.1545,VALID,220.362,VALID,21.3575,VALID,348,VALID,1.20938,
2015-03-01, 09:44:04,VALID,919.449,VALID,0,VALID,89.5523,VALID,216.601,VALID,21.299,VALID,4,VALID,1.53203,
2015-03-01, 09:45:04,VALID,919.446,VALID,0,VALID,90.1012,VALID,222.94,VALID,21.26,VALID,334,VALID,0,
2015-03-01, 09:46:04,VALID,919.433,VALID,0,VALID,90.1698,VALID,243.247,VALID,21.2795,VALID,19,VALID,1.70625,
2015-03-01, 09:47:04,VALID,919.433,VALID,0,VALID,89.7429,VALID,254.421,VALID,21.2795,VALID,14,VALID,0.699219,
2015-03-01, 09:48:04,VALID,919.427,VALID,0,VALID,89.9334,VALID,251.197,VALID,21.2405,VALID,20,VALID,0,
2015-03-01, 09:49:04,VALID,919.435,VALID,0,VALID,91.1074,VALID,245.288,VALID,21.299,VALID,25,VALID,1.53945,
2015-03-01, 09:50:04,VALID,919.461,VALID,0,VALID,93.3335,VALID,252.272,VALID,21.3965,VALID,340,VALID,0.768359,
2015-03-01, 09:51:04,VALID,919.457,VALID,0,VALID,90.894,VALID,267.743,VALID,21.455,VALID,17,VALID,1.1207,
2015-03-01, 09:52:04,VALID,919.422,VALID,0,VALID,91.4581,VALID,277.413,VALID,21.4941,VALID,26,VALID,1.01289,
2015-03-01, 09:53:04,VALID,919.468,VALID,0,VALID,92.2814,VALID,279.669,VALID,21.6485,VALID,37,VALID,0.0203125,
2015-03-01, 09:54:04,VALID,919.48,VALID,0,VALID,91.7326,VALID,277.413,VALID,21.8469,VALID,13,VALID,0.00117188,
2015-03-01, 09:55:04,VALID,919.47,VALID,0,VALID,89.7505,VALID,267.743,VALID,21.9623,VALID,353,VALID,1.65117,
2015-03-01, 09:56:04,VALID,919.472,VALID,0,VALID,88.6146,VALID,251.197,VALID,21.9818,VALID,8,VALID,0.558984,
2015-03-01, 09:57:04,VALID,919.444,VALID,0,VALID,88.7975,VALID,239.164,VALID,22.0013,VALID,28,VALID,0.940234,
2015-03-01, 09:58:04,VALID,919.484,VALID,0,VALID,89.1863,VALID,222.618,VALID,22.1201,VALID,16,VALID,0,
2015-03-01, 09:59:04,VALID,919.467,VALID,0,VALID,88.2715,VALID,199.841,VALID,22.1981,VALID,24,VALID,0,
2015-03-01, 10:00:04,VALID,919.497,VALID,0,VALID,88.5612,VALID,182.005,VALID,22.2957,VALID,10,VALID,0,
2015-03-01, 10:01:04,VALID,919.521,VALID,0,VALID,86.6401,VALID,174.27,VALID,22.3737,VALID,17,VALID,0,
2015-03-01, 10:02:04,VALID,919.522,VALID,0,VALID,86.7621,VALID,180.823,VALID,22.3542,VALID,30,VALID,0,
2015-03-01, 10:03:04,VALID,919.514,VALID,0,VALID,87.0061,VALID,191.353,VALID,22.2957,VALID,40,VALID,0,
2015-03-01, 10:04:04,VALID,919.507,VALID,0,VALID,87.837,VALID,197.584,VALID,22.2567,VALID,40,VALID,0,
2015-03-01, 10:05:04,VALID,919.488,VALID,0,VALID,86.3276,VALID,198.444,VALID,22.1981,VALID,279,VALID,0,
2015-03-01, 10:06:04,VALID,919.488,VALID,0,VALID,86.7468,VALID,196.617,VALID,22.0403,VALID,272,VALID,0,
2015-03-01, 10:07:04,VALID,919.491,VALID,0,VALID,87.5397,VALID,197.047,VALID,22.003,VALID,272,VALID,0,
2015-03-01, 10:08:04,VALID,919.521,VALID,0,VALID,87.9285,VALID,195.758,VALID,22.0794,VALID,273,VALID,0,
2015-03-01, 10:09:04,VALID,919.496,VALID,0,VALID,87.3567,VALID,191.568,VALID,22.1981,VALID,276,VALID,0,
2015-03-01, 10:10:04,VALID,919.51,VALID,0,VALID,87.4406,VALID,189.741,VALID,22.1574,VALID,313,VALID,0,
2015-03-01, 10:11:04,VALID,919.517,VALID,0,VALID,86.8688,VALID,186.625,VALID,22.1574,VALID,333,VALID,0,
2015-03-01, 10:12:04,VALID,919.536,VALID,0,VALID,87.6922,VALID,187.7,VALID,22.1574,VALID,334,VALID,0,
2015-03-01, 10:13:04,VALID,919.537,VALID,0,VALID,88.02,VALID,192.32,VALID,22.1981,VALID,307,VALID,0,
2015-03-01, 10:14:04,VALID,919.518,VALID,0,VALID,87.8446,VALID,193.287,VALID,22.1769,VALID,341,VALID,0,
2015-03-01, 10:15:04,VALID,919.515,VALID,0,VALID,87.9361,VALID,190.708,VALID,22.2159,VALID,4,VALID,0,
2015-03-01, 10:16:04,VALID,919.537,VALID,0,VALID,88.4545,VALID,185.981,VALID,22.3347,VALID,6,VALID,0,
2015-03-01, 10:17:04,VALID,919.537,VALID,0,VALID,87.7074,VALID,182.328,VALID,22.3933,VALID,2,VALID,0,
2015-03-01, 10:18:04,VALID,919.553,VALID,0,VALID,88.3173,VALID,183.939,VALID,22.4128,VALID,12,VALID,0,
2015-03-01, 10:19:04,VALID,919.555,VALID,0,VALID,87.8827,VALID,193.179,VALID,22.4111,VALID,12,VALID,0,
2015-03-01, 10:20:04,VALID,919.57,VALID,0,VALID,87.2043,VALID,206.287,VALID,22.5103,VALID,18,VALID,0,
2015-03-01, 10:21:04,VALID,919.562,VALID,0,VALID,86.6401,VALID,222.94,VALID,22.5689,VALID,17,VALID,0,
2015-03-01, 10:22:04,VALID,919.551,VALID,0,VALID,87.3034,VALID,237.123,VALID,22.6452,VALID,14,VALID,0,
2015-03-01, 10:23:04,VALID,919.539,VALID,0,VALID,86.8078,VALID,243.784,VALID,22.7428,VALID,14,VALID,0,
2015-03-01, 10:24:04,VALID,919.582,VALID,0,VALID,86.0379,VALID,253.239,VALID,22.8404,VALID,14,VALID,0,
2015-03-01, 10:25:04,VALID,919.581,VALID,0,VALID,85.7406,VALID,255.495,VALID,22.938,VALID,18,VALID,0,
2015-03-01, 10:26:04,VALID,919.557,VALID,0,VALID,84.9325,VALID,253.776,VALID,22.9787,VALID,18,VALID,0,
2015-03-01, 10:27:04,VALID,919.584,VALID,0,VALID,85.0316,VALID,263.123,VALID,22.977,VALID,18,VALID,0,
2015-03-01, 10:28:04,VALID,919.541,VALID,0,VALID,85.428,VALID,270.967,VALID,22.9983,VALID,1,VALID,0,
2015-03-01, 10:29:04,VALID,919.541,VALID,0,VALID,85.1231,VALID,271.396,VALID,23.0551,VALID,17,VALID,0,
2015-03-01, 10:30:04,VALID,919.507,VALID,0,VALID,84.3531,VALID,266.132,VALID,23.0551,VALID,10,VALID,0,
2015-03-01, 10:31:04,VALID,919.503,VALID,0,VALID,84.5589,VALID,256.784,VALID,23.0746,VALID,1,VALID,0,
2015-03-01, 10:32:04,VALID,919.511,VALID,0,VALID,83.5908,VALID,239.057,VALID,22.938,VALID,266,VALID,0,
2015-03-01, 10:33:04,VALID,919.498,VALID,0,VALID,84.376,VALID,216.601,VALID,22.9397,VALID,340,VALID,0,
2015-03-01, 10:34:04,VALID,919.494,VALID,0,VALID,84.1473,VALID,197.692,VALID,22.9965,VALID,347,VALID,0,
2015-03-01, 10:35:04,VALID,919.529,VALID,0,VALID,83.6746,VALID,177.815,VALID,23.0356,VALID,347,VALID,0,
2015-03-01, 10:36:04,VALID,919.552,VALID,0,VALID,83.2325,VALID,158.691,VALID,23.0338,VALID,334,VALID,0,
2015-03-01, 10:37:04,VALID,919.556,VALID,0,VALID,83.5221,VALID,155.36,VALID,22.938,VALID,302,VALID,0,
2015-03-01, 10:38:04,VALID,919.576,VALID,0,VALID,84.2616,VALID,162.881,VALID,22.8599,VALID,340,VALID,0,
2015-03-01, 10:39:04,VALID,919.581,VALID,0,VALID,84.5894,VALID,167.931,VALID,22.7428,VALID,356,VALID,0,
2015-03-01, 10:40:04,VALID,919.574,VALID,0,VALID,85.1002,VALID,178.03,VALID,22.6062,VALID,17,VALID,0,
2015-03-01, 10:41:04,VALID,919.586,VALID,0,VALID,85.6262,VALID,198.874,VALID,22.5477,VALID,15,VALID,0,
2015-03-01, 10:42:04,VALID,919.573,VALID,0,VALID,86.7697,VALID,221.221,VALID,22.5281,VALID,15,VALID,0,
2015-03-01, 10:43:04,VALID,919.562,VALID,0,VALID,85.9616,VALID,226.701,VALID,22.5672,VALID,14,VALID,0,
2015-03-01, 10:44:04,VALID,919.57,VALID,0,VALID,86.076,VALID,240.238,VALID,22.585,VALID,14,VALID,0,
2015-03-01, 10:45:04,VALID,919.552,VALID,0,VALID,86.6249,VALID,238.412,VALID,22.6257,VALID,15,VALID,0,
2015-03-01, 10:46:04,VALID,919.585,VALID,0,VALID,87.1966,VALID,230.569,VALID,22.6825,VALID,15,VALID,0,
2015-03-01, 10:47:04,VALID,919.596,VALID,0,VALID,87.0442,VALID,221.436,VALID,22.7818,VALID,14,VALID,0,
2015-03-01, 10:48:04,VALID,919.607,VALID,0,VALID,86.137,VALID,217.246,VALID,22.8989,VALID,14,VALID,0,
2015-03-01, 10:49:04,VALID,919.603,VALID,0,VALID,85.1383,VALID,230.139,VALID,22.9575,VALID,13,VALID,0,
2015-03-01, 10:50:04,VALID,919.6,VALID,0,VALID,84.2692,VALID,244.429,VALID,22.9167,VALID,13,VALID,0,
2015-03-01, 10:51:04,VALID,919.596,VALID,0,VALID,83.9872,VALID,245.288,VALID,22.8404,VALID,283,VALID,0,
2015-03-01, 10:52:04,VALID,919.61,VALID,0,VALID,84.5208,VALID,234.437,VALID,22.8404,VALID,283,VALID,0,
2015-03-01, 10:53:04,VALID,919.579,VALID,0,VALID,85.489,VALID,236.585,VALID,22.7606,VALID,283,VALID,0,
2015-03-01, 10:54:04,VALID,919.548,VALID,0,VALID,86.3199,VALID,248.834,VALID,22.7038,VALID,283,VALID,0,
2015-03-01, 10:55:04,VALID,919.572,VALID,0,VALID,86.8078,VALID,262.694,VALID,22.8209,VALID,310,VALID,0,
2015-03-01, 10:56:04,VALID,919.576,VALID,0,VALID,85.893,VALID,283,VALID,22.8387,VALID,256,VALID,0,
2015-03-01, 10:57:04,VALID,919.583,VALID,0,VALID,85.2374,VALID,371.746,VALID,22.7801,VALID,257,VALID,0,
2015-03-01, 10:58:04,VALID,919.602,VALID,0,VALID,86.076,VALID,585.877,VALID,22.7818,VALID,250,VALID,0.00195313,
2015-03-01, 10:59:04,VALID,919.577,VALID,0,VALID,87.25,VALID,498.634,VALID,22.8989,VALID,247,VALID,0,
2015-03-01, 11:00:04,VALID,919.581,VALID,0,VALID,86.5791,VALID,446.848,VALID,23.1314,VALID,282,VALID,0,
2015-03-01, 11:01:04,VALID,919.583,VALID,0,VALID,83.5526,VALID,417.624,VALID,23.268,VALID,305,VALID,0.0195313,
2015-03-01, 11:02:04,VALID,919.589,VALID,0,VALID,83.7508,VALID,429.765,VALID,23.4046,VALID,321,VALID,0,
2015-03-01, 11:03:04,VALID,919.58,VALID,0,VALID,82.7522,VALID,456.625,VALID,23.5022,VALID,288,VALID,0,
2015-03-01, 11:04:04,VALID,919.564,VALID,0,VALID,81.014,VALID,472.204,VALID,23.5217,VALID,288,VALID,0,
2015-03-01, 11:05:04,VALID,919.55,VALID,0,VALID,81.7535,VALID,583.405,VALID,23.5998,VALID,270,VALID,0,
2015-03-01, 11:06:04,VALID,919.53,VALID,0,VALID,82.4167,VALID,643.143,VALID,23.5998,VALID,261,VALID,0,
2015-03-01, 11:07:04,VALID,919.535,VALID,0,VALID,81.1131,VALID,766.055,VALID,23.8731,VALID,261,VALID,0,